TimeEST,TemperatureF,Dew PointF,Humidity,Sea Level PressureIn,VisibilityMPH,Wind Direction,Wind SpeedMPH,Gust SpeedMPH,PrecipitationIn,Events,Conditions,WindDirDegrees,DateUTC
12:58 AM,41.5,36.5,82,29.94,10.0,East,2.3,-,N/A,,Clear,100,2014-02-21 05:58:00
1:58 AM,41.0,36.9,85,29.94,10.0,NNE,2.3,-,N/A,,Clear,30,2014-02-21 06:58:00
2:58 AM,39.7,36.3,88,29.92,10.0,Calm,Calm,-,N/A,,Partly Cloudy,0,2014-02-21 07:58:00
3:58 AM,39.0,36.3,90,29.91,10.0,ESE,4.6,-,N/A,,Scattered Clouds,110,2014-02-21 08:58:00
4:58 AM,40.5,36.7,86,29.90,10.0,NNW,2.3,-,N/A,,Clear,340,2014-02-21 09:58:00
5:28 AM,39.2,37.4,93,29.86,10.0,SSE,2.3,-,N/A,,Mostly Cloudy,150,2014-02-21 10:28:00
5:33 AM,39.2,37.4,93,29.85,10.0,SSE,2.3,-,N/A,,Mostly Cloudy,160,2014-02-21 10:33:00
5:48 AM,41.0,37.4,87,29.84,10.0,South,3.5,-,N/A,,Overcast,170,2014-02-21 10:48:00
5:58 AM,40.8,37.9,89,29.86,10.0,South,5.8,-,N/A,,Overcast,170,2014-02-21 10:58:00
6:03 AM,41.0,39.2,93,29.83,10.0,South,6.9,-,N/A,,Overcast,180,2014-02-21 11:03:00
6:13 AM,44.6,42.8,93,29.83,10.0,South,5.8,-,N/A,,Overcast,190,2014-02-21 11:13:00
6:43 AM,46.4,46.4,100,29.83,1.5,SSW,5.8,-,N/A,,Overcast,200,2014-02-21 11:43:00
6:48 AM,46.4,46.4,100,29.82,0.5,South,5.8,-,N/A,Fog,Fog,170,2014-02-21 11:48:00
6:53 AM,46.4,46.4,100,29.82,0.2,South,6.9,-,N/A,Fog,Fog,170,2014-02-21 11:53:00
6:58 AM,46.4,46.0,99,29.85,0.2,South,6.9,-,N/A,Fog,Fog,170,2014-02-21 11:58:00
7:03 AM,46.4,46.4,100,29.82,0.2,South,5.8,-,N/A,Fog,Fog,170,2014-02-21 12:03:00
7:08 AM,46.4,46.4,100,29.81,0.2,South,4.6,-,N/A,Fog,Fog,170,2014-02-21 12:08:00
7:18 AM,48.2,48.2,100,29.81,0.2,South,4.6,-,N/A,Fog,Fog,170,2014-02-21 12:18:00
7:23 AM,48.2,48.2,100,29.81,0.2,SSE,3.5,-,N/A,Fog,Fog,160,2014-02-21 12:23:00
7:28 AM,48.2,48.2,100,29.81,0.2,SSE,5.8,-,N/A,Fog,Fog,160,2014-02-21 12:28:00
7:43 AM,48.2,48.2,100,29.81,0.2,South,6.9,-,N/A,Fog,Fog,170,2014-02-21 12:43:00
7:53 AM,50.0,50.0,100,29.80,0.2,SSE,5.8,-,N/A,Fog,Fog,160,2014-02-21 12:53:00
7:58 AM,50.0,50.0,100,29.83,0.2,SSE,6.9,-,N/A,Fog,Fog,160,2014-02-21 12:58:00
8:03 AM,50.0,50.0,100,29.80,0.2,SSE,8.1,-,N/A,Fog,Fog,160,2014-02-21 13:03:00
8:08 AM,50.0,50.0,100,29.79,0.8,SSE,8.1,-,N/A,,Mist,160,2014-02-21 13:08:00
8:13 AM,51.8,51.8,100,29.79,1.0,SSE,8.1,-,N/A,,Mist,160,2014-02-21 13:13:00
8:18 AM,51.8,51.8,100,29.79,1.8,SSE,8.1,-,N/A,,Mostly Cloudy,160,2014-02-21 13:18:00
8:23 AM,51.8,51.8,100,29.79,3.0,SSE,8.1,-,N/A,,Mostly Cloudy,160,2014-02-21 13:23:00
8:28 AM,53.6,53.6,100,29.78,5.0,SSE,8.1,-,N/A,,Scattered Clouds,160,2014-02-21 13:28:00
8:58 AM,57.4,57.4,100,29.79,10.0,South,16.1,-,N/A,,Clear,180,2014-02-21 13:58:00
9:58 AM,63.3,62.1,96,29.77,10.0,South,18.4,-,N/A,,Partly Cloudy,180,2014-02-21 14:58:00
10:58 AM,67.6,59.7,76,29.74,10.0,South,21.9,32.2,N/A,,Scattered Clouds,180,2014-02-21 15:58:00
11:58 AM,68.9,59.5,72,29.68,10.0,South,25.3,31.1,N/A,,Overcast,180,2014-02-21 16:58:00
12:02 PM,68.0,59.0,73,29.65,10.0,South,27.6,42.6,N/A,,Light Drizzle,190,2014-02-21 17:02:00
12:42 PM,64.4,59.0,83,29.68,10.0,South,23.0,27.6,N/A,,Mostly Cloudy,190,2014-02-21 17:42:00
12:58 PM,64.6,58.6,81,29.70,10.0,SSW,18.4,-,0.02,,Mostly Cloudy,210,2014-02-21 17:58:00
1:35 PM,64.4,57.2,77,29.69,10.0,WSW,19.6,26.5,N/A,,Overcast,250,2014-02-21 18:35:00
1:38 PM,64.4,57.2,77,29.69,10.0,WNW,17.3,26.5,N/A,,Overcast,300,2014-02-21 18:38:00
1:42 PM,62.6,53.6,72,29.72,10.0,WNW,24.2,28.8,N/A,,Overcast,300,2014-02-21 18:42:00
1:47 PM,57.2,50.0,77,29.73,10.0,NW,28.8,32.2,N/A,,Overcast,310,2014-02-21 18:47:00
1:52 PM,55.4,48.2,77,29.73,10.0,NW,25.3,32.2,N/A,Rain,Light Rain,320,2014-02-21 18:52:00
1:58 PM,53.6,48.2,82,29.75,9.0,NW,20.7,33.4,0.01,Rain,Light Rain,310,2014-02-21 18:58:00
2:18 PM,50.0,46.4,87,29.75,9.0,NW,16.1,28.8,N/A,Rain,Light Rain,310,2014-02-21 19:18:00
2:33 PM,50.0,44.6,82,29.75,10.0,NW,15.0,21.9,N/A,,Light Drizzle,310,2014-02-21 19:33:00
2:36 PM,50.0,44.6,82,29.76,10.0,NW,11.5,21.9,N/A,,Overcast,310,2014-02-21 19:36:00
2:53 PM,50.0,44.6,82,29.77,10.0,NW,9.2,-,N/A,,Light Drizzle,320,2014-02-21 19:53:00
2:58 PM,49.3,44.2,83,29.80,10.0,NW,8.1,-,0.02,,Light Drizzle,320,2014-02-21 19:58:00
3:03 PM,50.0,42.8,76,29.76,10.0,NW,6.9,-,N/A,,Light Drizzle,320,2014-02-21 20:03:00
3:05 PM,50.0,44.6,82,29.76,10.0,NNW,8.1,-,N/A,,Overcast,330,2014-02-21 20:05:00
3:58 PM,49.5,42.8,78,29.80,10.0,North,4.6,-,0.00,,Overcast,360,2014-02-21 20:58:00
4:58 PM,50.5,41.5,71,29.83,10.0,ESE,3.5,-,N/A,,Mostly Cloudy,120,2014-02-21 21:58:00
5:58 PM,48.4,41.0,76,29.85,10.0,ESE,4.6,-,N/A,,Clear,120,2014-02-21 22:58:00
6:58 PM,44.6,40.3,85,29.89,10.0,East,2.3,-,N/A,,Clear,100,2014-02-21 23:58:00
7:58 PM,41.7,40.3,95,29.92,10.0,North,3.5,-,N/A,,Clear,10,2014-02-22 00:58:00
8:58 PM,38.7,38.1,98,29.94,10.0,Calm,Calm,-,N/A,,Clear,0,2014-02-22 01:58:00
9:38 PM,35.6,35.6,100,29.93,1.2,Calm,Calm,-,N/A,,Clear,0,2014-02-22 02:38:00
9:43 PM,35.6,35.6,100,29.94,1.0,Calm,Calm,-,N/A,,Clear,0,2014-02-22 02:43:00
9:48 PM,35.6,35.6,100,29.94,3.0,Calm,Calm,-,N/A,,Clear,0,2014-02-22 02:48:00
9:58 PM,35.6,35.2,99,29.96,8.0,Calm,Calm,-,N/A,,Clear,0,2014-02-22 02:58:00
10:18 PM,35.6,35.6,100,29.94,2.0,SSE,2.3,-,N/A,,Clear,160,2014-02-22 03:18:00
10:23 PM,35.6,35.6,100,29.94,1.2,South,2.3,-,N/A,,Clear,170,2014-02-22 03:23:00
10:28 PM,35.6,35.6,100,29.94,0.8,SSE,1.2,-,N/A,,Clear,160,2014-02-22 03:28:00
10:33 PM,35.6,35.6,100,29.95,0.5,WSW,1.2,-,N/A,Fog,Fog,240,2014-02-22 03:33:00
10:38 PM,35.6,35.6,100,29.95,1.0,WNW,3.5,-,N/A,,Clear,290,2014-02-22 03:38:00
10:43 PM,37.4,37.4,100,29.95,6.0,Variable,1.2,-,N/A,,Clear,0,2014-02-22 03:43:00
10:58 PM,36.1,35.8,99,29.97,7.0,South,1.2,-,N/A,,Clear,170,2014-02-22 03:58:00
11:23 PM,32.0,32.0,100,29.96,1.2,South,2.3,-,N/A,,Clear,180,2014-02-22 04:23:00
11:28 PM,33.8,33.8,100,29.96,1.0,Calm,Calm,-,N/A,,Clear,0,2014-02-22 04:28:00
11:33 PM,33.8,33.8,100,29.96,1.2,NNE,1.2,-,N/A,,Clear,20,2014-02-22 04:33:00
11:38 PM,35.6,35.6,100,29.96,3.0,Calm,Calm,-,N/A,,Clear,0,2014-02-22 04:38:00
11:58 PM,36.7,36.5,99,29.99,9.0,WNW,3.5,-,N/A,,Clear,290,2014-02-22 04:58:00